When you browse on this site, cookies collect data to enhance your experience and personalize the content and advertising you see.
Visit our Privacy Policy to learn more. By continuing to use the site, you agree to this use of cookies and data.
  • In Schweiz
  • Länderverzeichnis
  • Für 7 Tage
  • Wassertemperatur
  • Wetterkarte
  • Widgets
  • user-avatar
    Anmelden

    Stündliche Wetter Toulouse

    Heute, 5 Juni, Freitag

    Zeit Temperatur Niederschläge Wind Luftdruck Luftfeuchtigkeit
    00:00 +13°C° 0 mm 6 m/S 743 mmHg 93%
    01:00 +11°C° 0.1 mm 6 m/S 743 mmHg 93%
    02:00 +11°C° 0.1 mm 6 m/S 743 mmHg 93%
    03:00 +11°C° 0.1 mm 6 m/S 742 mmHg 93%
    04:00 +11°C° 0.1 mm 6 m/S 743 mmHg 91%
    05:00 +11°C° 0.1 mm 6 m/S 743 mmHg 89%
    06:00 +13°C° 0 mm 5 m/S 744 mmHg 87%
    07:00 +13°C° 0 mm 6 m/S 744 mmHg 85%
    08:00 +14°C° 0 mm 6 m/S 744 mmHg 83%
    09:00 +14°C° 0 mm 6 m/S 744 mmHg 81%
    10:00 +14°C° 0 mm 6 m/S 744 mmHg 82%
    11:00 +14°C° 0 mm 6 m/S 745 mmHg 83%
    12:00 +14°C° 0 mm 6 m/S 745 mmHg 84%
    13:00 +15°C° 0 mm 6 m/S 745 mmHg 82%
    14:00 +16°C° 0 mm 7 m/S 744 mmHg 79%
    15:00 +17°C° 0 mm 7 m/S 744 mmHg 76%
    16:00 +17°C° 0 mm 6 m/S 744 mmHg 78%
    17:00 +16°C° 0 mm 6 m/S 744 mmHg 79%
    18:00 +16°C° 0 mm 5 m/S 744 mmHg 80%
    19:00 +16°C° 0 mm 5 m/S 745 mmHg 83%
    20:00 +15°C° 0 mm 4 m/S 745 mmHg 86%
    21:00 +14°C° 0 mm 4 m/S 746 mmHg 89%
    22:00 +14°C° 0 mm 3 m/S 746 mmHg 90%
    23:00 +14°C° 0 mm 3 m/S 746 mmHg 90%

    Morgen, 6 Juni, Samstag

    Zeit Temperatur Niederschläge Wind Luftdruck Luftfeuchtigkeit
    00:00 +13°C° 0 mm 3 m/S 745 mmHg 90%
    01:00 +13°C° 0 mm 3 m/S 745 mmHg 91%
    02:00 +13°C° 0 mm 3 m/S 745 mmHg 91%
    03:00 +13°C° 0 mm 3 m/S 745 mmHg 92%
    04:00 +13°C° 0 mm 3 m/S 745 mmHg 91%
    05:00 +14°C° 0 mm 3 m/S 745 mmHg 89%
    06:00 +14°C° 0 mm 3 m/S 745 mmHg 88%
    07:00 +16°C° 0 mm 3 m/S 745 mmHg 84%
    08:00 +17°C° 0 mm 3 m/S 745 mmHg 81%
    09:00 +19°C° 0 mm 3 m/S 745 mmHg 77%
    10:00 +20°C° 0 mm 4 m/S 745 mmHg 73%
    11:00 +21°C° 0 mm 4 m/S 745 mmHg 69%
    12:00 +22°C° 0 mm 4 m/S 744 mmHg 65%
    13:00 +22°C° 0 mm 3 m/S 744 mmHg 65%
    14:00 +22°C° 0 mm 3 m/S 744 mmHg 66%
    15:00 +23°C° 0 mm 2 m/S 743 mmHg 66%
    16:00 +21°C° 0.6 mm 2 m/S 743 mmHg 72%
    17:00 +21°C° 0.6 mm 2 m/S 743 mmHg 77%
    18:00 +20°C° 0.6 mm 2 m/S 743 mmHg 83%
    19:00 +19°C° 1.7 mm 3 m/S 743 mmHg 87%
    20:00 +17°C° 1.7 mm 3 m/S 743 mmHg 91%
    21:00 +16°C° 1.7 mm 3 m/S 744 mmHg 94%
    22:00 +16°C° 1.1 mm 2 m/S 744 mmHg 94%
    23:00 +15°C° 1.1 mm 2 m/S 744 mmHg 94%

    übermorgen, 7 Juni, Sonntag

    Zeit Temperatur Niederschläge Wind Luftdruck Luftfeuchtigkeit
    00:00 +15°C° 1.1 mm 2 m/S 744 mmHg 94%
    01:00 +15°C° 1.4 mm 2 m/S 744 mmHg 94%
    02:00 +13°C° 1.4 mm 3 m/S 744 mmHg 94%
    03:00 +13°C° 1.4 mm 3 m/S 743 mmHg 94%
    04:00 +12°C° 0.8 mm 3 m/S 744 mmHg 94%
    05:00 +12°C° 0.8 mm 3 m/S 744 mmHg 94%
    06:00 +12°C° 0.8 mm 2 m/S 744 mmHg 93%
    07:00 +13°C° 0.2 mm 2 m/S 744 mmHg 90%
    08:00 +12°C° 0.2 mm 3 m/S 745 mmHg 86%
    09:00 +12°C° 0.2 mm 3 m/S 745 mmHg 82%
    10:00 +13°C° 0 mm 3 m/S 745 mmHg 77%
    11:00 +14°C° 0 mm 3 m/S 745 mmHg 71%
    12:00 +16°C° 0 mm 3 m/S 745 mmHg 66%
    13:00 +15°C° 0 mm 4 m/S 745 mmHg 67%
    14:00 +15°C° 0 mm 4 m/S 745 mmHg 68%
    15:00 +15°C° 0 mm 5 m/S 745 mmHg 70%
    16:00 +15°C° 0 mm 5 m/S 745 mmHg 72%
    17:00 +15°C° 0 mm 4 m/S 745 mmHg 74%
    18:00 +14°C° 0 mm 4 m/S 745 mmHg 77%
    19:00 +13°C° 0 mm 4 m/S 746 mmHg 81%
    20:00 +12°C° 0 mm 3 m/S 746 mmHg 85%
    21:00 +11°C° 0 mm 3 m/S 747 mmHg 89%
    22:00 +11°C° 0 mm 3 m/S 747 mmHg 88%
    23:00 +10°C° 0 mm 3 m/S 747 mmHg 87%

    8 Juni, Montag

    Zeit Temperatur Niederschläge Wind Luftdruck Luftfeuchtigkeit
    00:00 +10°C° 0 mm 3 m/S 747 mmHg 86%
    01:00 +9°C° 0 mm 3 m/S 747 mmHg 87%
    02:00 +9°C° 0 mm 2 m/S 747 mmHg 87%
    03:00 +9°C° 0 mm 2 m/S 746 mmHg 87%
    04:00 +10°C° 0 mm 2 m/S 747 mmHg 85%
    05:00 +10°C° 0 mm 2 m/S 747 mmHg 83%
    06:00 +12°C° 0 mm 2 m/S 747 mmHg 81%
    07:00 +13°C° 0 mm 2 m/S 747 mmHg 76%
    08:00 +15°C° 0 mm 2 m/S 747 mmHg 72%
    09:00 +17°C° 0 mm 3 m/S 747 mmHg 67%
    10:00 +18°C° 0 mm 3 m/S 747 mmHg 63%
    11:00 +19°C° 0 mm 3 m/S 746 mmHg 59%
    12:00 +20°C° 0 mm 3 m/S 746 mmHg 55%
    13:00 +20°C° 0.1 mm 3 m/S 746 mmHg 56%
    14:00 +20°C° 0.1 mm 4 m/S 746 mmHg 57%
    15:00 +21°C° 0.1 mm 4 m/S 746 mmHg 57%
    16:00 +20°C° 0.3 mm 4 m/S 746 mmHg 63%
    17:00 +19°C° 0.3 mm 4 m/S 746 mmHg 68%
    18:00 +18°C° 0.3 mm 4 m/S 746 mmHg 74%
    19:00 +17°C° 0.5 mm 4 m/S 747 mmHg 79%
    20:00 +14°C° 0.5 mm 4 m/S 747 mmHg 85%
    21:00 +13°C° 0.5 mm 4 m/S 748 mmHg 90%
    22:00 +12°C° 0.1 mm 4 m/S 748 mmHg 91%
    23:00 +12°C° 0.1 mm 4 m/S 748 mmHg 92%

    9 Juni, Dienstag

    Zeit Temperatur Niederschläge Wind Luftdruck Luftfeuchtigkeit
    00:00 +12°C° 0.1 mm 4 m/S 748 mmHg 93%
    01:00 +11°C° 0 mm 4 m/S 748 mmHg 94%
    02:00 +11°C° 0 mm 3 m/S 748 mmHg 95%
    03:00 +10°C° 0 mm 3 m/S 748 mmHg 96%
    04:00 +11°C° 0 mm 3 m/S 748 mmHg 94%
    05:00 +11°C° 0 mm 3 m/S 748 mmHg 93%
    06:00 +12°C° 0 mm 4 m/S 749 mmHg 91%
    07:00 +14°C° 0 mm 4 m/S 749 mmHg 85%
    08:00 +15°C° 0 mm 4 m/S 748 mmHg 78%
    09:00 +18°C° 0 mm 4 m/S 748 mmHg 71%
    10:00 +19°C° 0 mm 4 m/S 748 mmHg 66%
    11:00 +20°C° 0 mm 4 m/S 748 mmHg 61%
    12:00 +21°C° 0 mm 4 m/S 748 mmHg 55%
    13:00 +22°C° 0.2 mm 4 m/S 748 mmHg 56%
    14:00 +22°C° 0.2 mm 4 m/S 747 mmHg 56%
    15:00 +22°C° 0.2 mm 5 m/S 747 mmHg 57%
    16:00 +21°C° 0.5 mm 4 m/S 747 mmHg 64%
    17:00 +20°C° 0.5 mm 4 m/S 748 mmHg 70%
    18:00 +19°C° 0.5 mm 4 m/S 748 mmHg 76%
    19:00 +18°C° 1.1 mm 4 m/S 749 mmHg 81%
    20:00 +16°C° 1.1 mm 5 m/S 749 mmHg 85%
    21:00 +14°C° 1.1 mm 5 m/S 750 mmHg 89%
    22:00 +14°C° 0.1 mm 5 m/S 750 mmHg 91%
    23:00 +13°C° 0.1 mm 5 m/S 750 mmHg 92%

    10 Juni, Mittwoch

    Zeit Temperatur Niederschläge Wind Luftdruck Luftfeuchtigkeit
    00:00 +13°C° 0.1 mm 6 m/S 750 mmHg 93%
    01:00 +12°C° 0 mm 5 m/S 750 mmHg 94%
    02:00 +12°C° 0 mm 5 m/S 750 mmHg 95%
    03:00 +12°C° 0 mm 4 m/S 750 mmHg 95%
    04:00 +12°C° 0 mm 4 m/S 750 mmHg 95%
    05:00 +12°C° 0 mm 4 m/S 750 mmHg 94%
    06:00 +13°C° 0 mm 4 m/S 750 mmHg 93%
    07:00 +14°C° 0 mm 4 m/S 750 mmHg 89%
    08:00 +15°C° 0 mm 4 m/S 750 mmHg 85%
    09:00 +17°C° 0 mm 5 m/S 750 mmHg 82%
    10:00 +19°C° 0.4 mm 4 m/S 750 mmHg 77%
    11:00 +20°C° 0.4 mm 4 m/S 750 mmHg 72%
    12:00 +21°C° 0.4 mm 4 m/S 749 mmHg 67%
    13:00 +21°C° 0.6 mm 5 m/S 749 mmHg 66%
    14:00 +22°C° 0.6 mm 5 m/S 749 mmHg 65%
    15:00 +22°C° 0.6 mm 5 m/S 749 mmHg 64%
    16:00 +21°C° 0.7 mm 4 m/S 749 mmHg 68%
    17:00 +21°C° 0.7 mm 4 m/S 749 mmHg 73%
    18:00 +20°C° 0.7 mm 3 m/S 749 mmHg 77%
    19:00 +18°C° 0.7 mm 3 m/S 749 mmHg 80%
    20:00 +17°C° 0.7 mm 3 m/S 750 mmHg 84%
    21:00 +14°C° 0.7 mm 3 m/S 750 mmHg 88%
    22:00 +14°C° 0.1 mm 4 m/S 750 mmHg 89%
    23:00 +13°C° 0.1 mm 4 m/S 750 mmHg 91%
    Mehr zeigen